{"data":{"norad_id":25757,"epoch":"2026-05-24T22:33:00.406656Z","epoch_age_seconds":73581,"freshness":"FRESH","line1":"1 25757U 99029B   26144.93958804  .00000070  00000+0  29152-4 0  9997","line2":"2 25757  98.6691 139.6798 0015267  63.1593 297.1161 14.52419554429875","mean_motion":14.52419554,"eccentricity":0.0015267,"inclination_deg":98.6691,"raan_deg":139.6798,"arg_perigee_deg":63.1593,"mean_anomaly_deg":297.1161,"bstar":2.9152e-5,"rev_number":42987,"period_min":99.144905894044,"perigee_km":706.92365343192,"apogee_km":728.5902560333,"semimajor_km":7095.8939547326,"source":"CELESTRAK","updated_at":"2026-05-25T13:38:12.740747Z"}}